Lehigh Valley, PA

9:32 PM EDT on September 29, 2016 (GMT -0400)
Lehigh Valley International

Weather History for KABE - April, 2013

Change the Weather History Date:

Thursday, April 18, 2013

  Actual Average Record
Temperature  
Mean Temperature 55 °F 51 °F  
Max Temperature 61 °F 62 °F 93 °F (1976)
Min Temperature 49 °F 39 °F 25 °F (1948)
Degree Days  
Heating Degree Days 10 14  
Month to date heating degree days 260 310  
Since 1 July heating degree days 5048 5422  
Cooling Degree Days 0 0  
Month to date cooling degree days 8 0  
Year to date cooling degree days 8 0  
Growing Degree Days 4 (Base 50)    
Moisture  
Dew Point 49 °F    
Average Humidity 76    
Maximum Humidity 93    
Minimum Humidity 59    
Precipitation  
Precipitation 0.16 in 0.11 in 1.22 in (1949)
Month to date precipitation 1.62 2.16  
Year to date precipitation 9.97 11.28  
Snow  
Snow 0.00 in 0.00 in 0.90 in (1983)
Month to date snowfall 0.0 0.8  
Since 1 July snowfall 21.4 32.7  
Snow Depth 0.00 in    
Sea Level Pressure  
Sea Level Pressure 30.20 in    
Wind  
Wind Speed 7 mph (ESE)    
Max Wind Speed 16 mph    
Max Gust Speed 22 mph    
Visibility 9 miles    
Events Rain    
T = Trace of Precipitation, MM = Missing Value Source: NWS Daily Summary

Daily Weather History Graph

Daily Weather History Graph

Search for Another Location

Airport or City:

Trip Planner

Search our weather history database for the weather conditions in past years. The results will help you decide how hot, cold, wet, or windy it might be!

Date:

Astronomy

Apr. 18, 2013 Rise Set
Actual Time 6:18 AM EDT 7:44 PM EDT
Civil Twilight 5:49 AM EDT 8:13 PM EDT
Nautical Twilight 5:15 AM EDT 8:47 PM EDT
Astronomical Twilight 4:39 AM EDT 9:24 PM EDT
Moon 12:27 PM EDT (4/18) 1:58 AM EDT (4/18)
Length of Visible Light 14h 23m
Length of Day
13h 26m
First Quarter, 51% of the Moon is Illuminated
Apr 18
First Quarter
Apr 25
Full
May 2
Last Quarter
May 9
New
May 18
First Quarter

Hourly Weather History & Observations

Time (EDT) Temp. Dew Point Humidity Pressure Visibility Wind Dir Wind Speed Gust Speed Precip Events Conditions
12:51 AM 57.0 °F 45.0 °F 64% 30.28 in 10.0 mi SSE 5.8 mph - N/A   Clear
1:51 AM 55.9 °F 44.1 °F 64% 30.27 in 10.0 mi SE 4.6 mph - N/A   Partly Cloudy
2:51 AM 52.0 °F 44.1 °F 74% 30.28 in 10.0 mi Calm Calm - N/A   Overcast
3:51 AM 52.0 °F 43.0 °F 71% 30.27 in 10.0 mi East 3.5 mph - N/A   Mostly Cloudy
4:51 AM 51.1 °F 44.1 °F 77% 30.26 in 10.0 mi NE 4.6 mph - N/A   Overcast
5:51 AM 50.0 °F 42.1 °F 74% 30.26 in 10.0 mi East 6.9 mph - N/A   Scattered Clouds
6:51 AM 51.1 °F 42.1 °F 71% 30.28 in 10.0 mi ENE 6.9 mph - N/A   Overcast
7:51 AM 53.1 °F 39.9 °F 61% 30.30 in 10.0 mi ENE 5.8 mph - N/A   Overcast
8:51 AM 54.0 °F 44.1 °F 69% 30.30 in 10.0 mi East 6.9 mph - N/A   Overcast
9:51 AM 55.0 °F 46.9 °F 74% 30.29 in 10.0 mi ESE 11.5 mph - N/A   Overcast
10:51 AM 57.0 °F 46.0 °F 67% 30.29 in 10.0 mi SE 11.5 mph 19.6 mph N/A   Overcast
11:51 AM 57.9 °F 46.0 °F 65% 30.27 in 10.0 mi SE 12.7 mph 21.9 mph N/A   Overcast
12:43 PM 57.2 °F 46.4 °F 67% 30.26 in 10.0 mi SE 9.2 mph - 0.00 in Rain Light Rain
12:51 PM 57.0 °F 46.9 °F 69% 30.26 in 10.0 mi ESE 6.9 mph - 0.00 in Rain Light Rain
1:27 PM 53.6 °F 48.2 °F 82% 30.25 in 2.5 mi East 8.1 mph - 0.04 in Rain Rain
1:51 PM 54.0 °F 50.0 °F 86% 30.24 in 3.0 mi East 6.9 mph - 0.08 in Rain Rain
2:51 PM 53.1 °F 50.0 °F 89% 30.22 in 3.0 mi East 9.2 mph - 0.03 in Rain Rain
2:58 PM 53.6 °F 50.0 °F 88% 30.22 in 2.0 mi East 6.9 mph - 0.03 in Rain Rain
3:15 PM 53.6 °F 51.8 °F 94% 30.21 in 3.0 mi ENE 5.8 mph - 0.05 in Rain Light Rain
3:51 PM 54.0 °F 51.1 °F 90% 30.19 in 10.0 mi East 6.9 mph - 0.05 in   Overcast
4:51 PM 55.9 °F 52.0 °F 87% 30.17 in 10.0 mi ENE 5.8 mph - N/A   Overcast
5:51 PM 59.0 °F 51.1 °F 75% 30.16 in 10.0 mi ESE 9.2 mph 17.3 mph N/A   Overcast
6:51 PM 59.0 °F 53.1 °F 81% 30.15 in 10.0 mi ESE 6.9 mph - N/A   Overcast
7:39 PM 57.2 °F 51.8 °F 82% 30.13 in 10.0 mi ESE 8.1 mph - N/A   Overcast
7:51 PM 57.0 °F 52.0 °F 83% 30.13 in 10.0 mi East 9.2 mph - N/A   Overcast
8:39 PM 55.4 °F 53.6 °F 94% 30.11 in 9.0 mi ESE 9.2 mph - N/A   Overcast
8:51 PM 55.9 °F 53.1 °F 90% 30.12 in 9.0 mi East 9.2 mph - N/A   Overcast
9:51 PM 55.9 °F 53.1 °F 90% 30.11 in 7.0 mi NE 4.6 mph - N/A   Overcast
10:51 PM 57.0 °F 54.0 °F 89% 30.07 in 9.0 mi Variable 5.8 mph - N/A   Overcast
11:22 PM 60.8 °F 55.4 °F 82% 30.06 in 10.0 mi SSE 9.2 mph 18.4 mph N/A   Mostly Cloudy
11:29 PM 60.8 °F 55.4 °F 82% 30.06 in 10.0 mi South 8.1 mph - N/A   Mostly Cloudy
11:44 PM 60.8 °F 55.4 °F 82% 30.05 in 10.0 mi Calm Calm - N/A   Mostly Cloudy
11:51 PM 60.1 °F 55.9 °F 86% 30.05 in 10.0 mi Variable 5.8 mph - N/A   Mostly Cloudy